Flag for U.S.A. Weather past 2 weeks in Chicago, Illinois, U.S.A.

Now
69 °F

Passing clouds.


Feels Like: 69 °F
Forecast: 52 / 59 °F
Wind: 3 mph from North

Location: Chicago Midway Airport

Current Time: Apr 17, 2015 at 11:11:44 PM

Latest Report: Apr 17, 2015 at 9:53 PM


Visibility: 10 mi

Pressure: 29.99 "Hg

Humidity: 42%

Dew point: 45 °F

Location of ChicagoLocation

Historic Weather in Chicago — Graph

°F

Chicago temperature yesterday

Maximum temperature yesterday: 63 °F (at 3:53 PM)
Minimum temperature yesterday: 47 °F (at 6:53 AM)
Average temperature yesterday: 54 °F

Past Weeks' High & Low Weather Summary

 TemperatureHumidityPressure
High78 °F (Apr 17, 12:53 PM)100% (Apr 8, 7:53 AM)30.31 "Hg (Apr 8, 7:53 AM)
Low32 °F (Apr 4, 4:53 AM)14% (Apr 14, 5:53 PM)29.43 "Hg (Apr 9, 8:53 PM)
Average54 °F55%30.04 "Hg
* Reported Apr 2 9:53 PM — Apr 17 9:53 PM, Chicago, Weather by CustomWeather, © 2015

Note: Actual official high and low records may vary slightly from our data, if they occured in-between our weather recording intervals... More about our weather records

Advertising

Chicago weather history for previous 24 hours

 ConditionsComfort  
Time TempWeatherWind HumidityBarometerVisibility
9:53 PM
Fri, Apr 17
69 °FPassing clouds.3 mph42%29.99 "Hg10 mi
8:53 PM69 °FPassing clouds.6 mph42%29.99 "Hg10 mi
7:53 PM70 °FPartly sunny.8 mph41%29.98 "Hg10 mi
6:53 PM73 °FBroken clouds.8 mph38%29.98 "Hg10 mi
5:53 PM78 °FPartly sunny.9 mph33%29.98 "Hg10 mi
4:53 PM77 °FBroken clouds.7 mph35%29.98 "Hg10 mi
3:53 PM78 °FScattered clouds.5 mph33%29.99 "Hg10 mi
2:53 PM76 °FPartly sunny.5 mph39%30.01 "Hg10 mi
1:53 PM76 °FPartly sunny.6 mph35%30.02 "Hg10 mi
12:53 PM78 °FPassing clouds.No wind35%30.04 "Hg10 mi
11:53 AM74 °FScattered clouds.3 mph40%30.07 "Hg10 mi
10:53 AM72 °FPassing clouds.7 mph43%30.08 "Hg10 mi
9:53 AM68 °FPartly sunny.6 mph57%30.10 "Hg9 mi
8:53 AM63 °FFog.6 mph68%30.11 "Hg7 mi
7:53 AM57 °FFog.5 mph83%30.10 "Hg5 mi
6:53 AM52 °FFog.No wind89%30.08 "Hg4 mi
5:53 AM50 °FFog.No wind83%30.06 "Hg4 mi
4:53 AM51 °FClear.No wind80%30.07 "Hg10 mi
3:53 AM50 °FPassing clouds.No wind80%30.09 "Hg10 mi
2:53 AM51 °FClear.5 mph74%30.09 "Hg10 mi
1:53 AM52 °FClear.3 mph72%30.07 "Hg10 mi
12:53 AM52 °FClear.No wind69%30.08 "Hg10 mi
11:53 PM
Thu, Apr 16
52 °FClear.7 mph69%30.10 "Hg10 mi
Weather by CustomWeather, © 2015

See weather overviewHow to use our weather pages